Regional Weather Roundup
Issued by NWS Cleveland, OH

Home | Current Version | Previous Version | Graphics & Text | Print | Product List | Glossary On
Versions: 1 2 3 4 5 6 7 8 9 10 11 12 13 14 15 16 17 18 19 20 21 22 23 24 25 26 27 28 29 30 31 32 33 34 35 36 37 38 39 40 41 42 43 44 45 46 47 48 49 50
000
ASUS41 KCLE 252310
RWRCLE
OHIO REGIONAL WEATHER ROUNDUP
NATIONAL WEATHER SERVICE WILMINGTON, OH
700 PM EDT SUN SEP 25 2016

NOTE: "FAIR" INDICATES FEW OR NO CLOUDS BELOW 12,000 FEET WITH NO
SIGNIFICANT WEATHER AND/OR OBSTRUCTIONS TO VISIBILITY.

OHZ001>008-015>018-024>027-034-035-043-044-260000-
   NORTHWEST OHIO

CITY           SKY/WX    TMP DP  RH WIND       PRES   REMARKS
DEFIANCE       FAIR      76  55  48 E3        30.02F
FINDLAY        FAIR      78  47  33 E8        30.03F
TOLEDO EXPRESS FAIR      68  54  60 E10       30.04F
TOLEDO EXEC    FAIR      69  54  58 E7        30.06F
LIMA           FAIR      78  63  59 E8        30.02F
$$

OHZ009>014-019>023-028>033-038-089-260000-
   NORTHEAST OHIO

CITY           SKY/WX    TMP DP  RH WIND       PRES   REMARKS
CLE-HOPKINS    MOCLDY    70  50  49 NE6       30.10F
CLE-LAKEFRONT  FAIR      70  52  52 NE7       30.07F
CUY CO. ARPT   CLEAR     68  54  60 E6        30.10F
LORAIN-ELYRIA  FAIR      68  50  52 E6        30.09F
ASHTABULA      FAIR      62  53  72 NE3       30.13F
AKRON-CANTON   FAIR      69  48  47 E5        30.11R
WOOSTER        FAIR      70  46  42 E5        30.10S
MANSFIELD      FAIR      72  49  44 E7        30.09S
YOUNGSTOWN     MOCLDY    65  51  60 E3        30.12S
$$

OHZ042-051>053-060>062-070>072-077>081-260000-
  SOUTHWEST OHIO

CITY           SKY/WX    TMP DP  RH WIND       PRES   REMARKS
CINC-COVINGTON FAIR      84  64  50 CALM      30.03F
CINC-LUNKEN    FAIR      78  72  81 CALM      30.02F
HAMILTON       FAIR      77  70  79 CALM      30.03F
DAYTON         FAIR      77  63  61 SE7       30.05F
WRIGHT-PAT AFB PTCLDY    81  63  54 SE5       30.03F
DAYTON GENERAL FAIR      79  63  57 S6        30.03F
WILMINGTON     FAIR      80  64  58 W6        30.05S
$$

OHZ036-037-039>041-045>050-054>059-063>069-073>076-082>088-260000-
  CENTRAL AND SOUTHEAST OHIO

CITY           SKY/WX    TMP DP  RH WIND       PRES   REMARKS
COLUMBUS       FAIR      78  53  41 E3        30.05F
OSU AIRPORT    FAIR      76  56  49 E8        30.05F
BOLTON FIELD   CLEAR     75  59  57 E3        30.06S
RICKENBACK AFB FAIR      76  55  48 E6        30.05F
NEWARK         FAIR      74  52  46 CALM      30.07S
MARION         FAIR      75  49  39 SE8       30.06F
LANCASTER      FAIR      79  47  32 CALM      30.07R
ZANESVILLE     FAIR      77  45  32 N3        30.08S
NEW PHILLY     FAIR      76  44  32 E3        30.09S
$$




USA.gov is the U.S. government's official web portal to all federal, state and local government web resources and services.